Terminal Aerodrome Forecast
Issued by NWS St Louis, MO

Home | Current Version | Previous Version | Graphics & Text | Print | Product List | Glossary On
Versions: 1 2 3 4 5 6 7 8 9 10 11 12 13 14 15 16 17 18 19 20 21 22 23 24
810
FTUS43 KLSX 090908 AAA
TAFSTL
TAF AMD
KSTL 090908Z 0909/1012 25010KT P6SM SCT025 BKN250
     FM091200 28011KT P6SM BKN025
     FM091600 31015G24KT P6SM BKN035
     FM091800 32015G23KT P6SM SCT040
     FM092300 31011KT P6SM FEW250
     FM100800 25004KT P6SM FEW200=

USA.gov is the U.S. government's official web portal to all federal, state and local government web resources and services.